User: anonymous   Login
Location: Bishopstone
(51.0167°N, 1.9000°W)
Time: 21:02:26
(UTC+00:00)
Language:

SL-24 R/B - Orbit

View from above orbital plane
View from above orbital plane
View from above satellite
View from above satellite

Ground track
Ground track

The orbit data is extracted from the following two-line orbital elements,

1 31123U 07012G   19317.21465788  .00000025  00000-0  23407-4 0  9999
2 31123  98.0452   1.7738 0312026 201.9758 200.8053 14.12595441648262
Epoch (UTC): 13 November 2019 05:09:06
Eccentricity: 0.0312026
inclination: 98.0452°
perigee height: 625 km
apogee height: 1076 km
right ascension of ascending node: 1.7738°
argument of perigee: 201.9758°
revolutions per day: 14.12595441
mean anomaly at epoch: 200.8053°
orbit number at epoch: 64826

The dashed part of the orbit path shows where the satellite is in the earth's shadow,  

DLR